STARLINK-2100, 47380

Orbit data source: Space-Track

STARLINK-2100, 47380 is a payload satellite owned by SpaceX/Seattle (US) in LEO that was launched on Wed, 20 Jan 2021 UTC via an FALCON 9 launch vehicle from the Air Force Eastern Test Range (AFETR). Payload-class satellites include a variety of spacecraft equipped with specific instruments for various scientific and technological missions. These include communications satellites like Starlink; space stations such as the ISS; scientific satellites like the Hubble; Earth observation satellites from companies like Planet Labs, Umbra, and HawkEye 360; GPS; miniature CubeSats for education and research; and military/defense satellites.

Loading next visibility...
Identifier
47380, 2021-005AH
Orbit
LEO
Country
Flag of USUS
Related business
Manufacturer
SpaceX/Seattle
Mission
Partially operational Commercial Communications
Bus & Motor
STARLINK, Unknown motor
Mass
260 kg wet, ~248 kg dry
Launch date (UTC)
2021-01-20 (5 years ago)
Launch vehicle
FALCON 9
Launch site
Air Force Eastern Test Range (AFETR)
Object type
Payload
Rocket body
Debris
Shape & HBR
Box + 1 Pan, 10.1 m
Radar Cross Section
13.562 m², Large (>1 m²)

Expand to show TLE details & history
Last TLE update: 2 days ago

TLE from 2 days ago
0 STARLINK-2100
1 47380U 21005AH  26171.50003471  .00055733  00000-0  27160-3 0  9999
2 47380  53.0519 253.4434 0009844 345.8727 142.2659 15.81778803  6039
Epoch: 2026-06-20T12:00Z
TLE epoch observation values (Epoch: 2026-06-20T12:00:02.998Z)
Latitude
39.03008°
Longitude
-52.6044°
Altitude
333.996 km
Speed
7.71 km/s
True Right ascension
02h 24m 29s
True Declination
38° 51' 05"
Sunlit
Object was in daylight at epoch
Visualization orbit readout
Latitude
Unknown
Longitude
Unknown
Altitude
Unknown
Speed
Unknown
Apparent Right ascension
Unknown
Apparent Declination
Unknown
Sunlit
N/A
Visualization observer readout
Local Sidereal Time
21:54:58
Azimuth
Unknown
Elevation
Unknown
Doppler factor
Unknown
Orbital elements
Apogee altitude
332.289 km
Perigee altitude
319.091 km
Semi-major axis
6,703.827 km
Eccentricity
0.00098
Inclination
53.0519°
RAAN
253.4434°
Arg. of periapsis
345.8727°
True anomaly
142.33487°
Mean anomaly
142.2659°
Eccentric anomaly
142.30039°
Mean motion
3.9542 °/min
Orbital period
91.04 mins
BSTAR
0.0002716
Loading maneuver chart data...
Computing Atmospheric mass density...

Documentation

Showing up to 5 results
|